If you wish to contribute or participate in the discussions about articles you are invited to join SKYbrary as a registered user

 Actions

Abel Santa Maria Airport

From SKYbrary Wiki

MUSC
Airport
ICAO: MUSC – IATA: SNU
Summary
Name Abel Santa Maria Airport
Region South America and Caribbean
Territory Cuba CU.gif
Location Santa Clara, Villa Clara
Serving Santa Clara
Elevation 103.022 m
338 ft103.022 m
Coordinates 22° 29' 26.32" N, 79° 56' 40.01" W
Runways
Designator Length Width Surface ROPS
8/26 3017 m9,898.294 ft
45 m147.638 ft
ASP yes/yes


METAR
Observation MUSC 140850Z 12005KT 8000 FEW020 21/19 Q1017
Station SANTA CLARA
Date/Time 14 December 2018 08:50:00
Wind direction 120°
Wind speed 05 kts
Lowest cloud amount few clouds
Temperature 21°C
Dew point 19°C
Humidity 88%
QNH 1017 hPa
Weather condition n/a

BS
Tag(s) Bird Strike
WX
Tag(s) Cumulonimbus
Tropical Revolving Storm

International airport serving Santa Clara, Cuba.

Climatology

Tropical Savanna climate (Köppen climate classification Aw)

Maps

Terrain

Loading map...

Airport Layout

Loading map...


Accidents & Serious Incidents at or in vicinity of MUSC

None on SKYbrary